When you browse on this site, cookies collect data to enhance your experience and personalize the content and advertising you see.
Visit our Privacy Policy to learn more. By continuing to use the site, you agree to this use of cookies and data.
  • In Österreich
  • Länderverzeichnis
  • Für 7 Tage
  • Wassertemperatur
  • Satellitenkarten
  • Wetterkarte
  • News
  • Widgets
  • user-avatar
    Anmelden

    Stündliche Wetter Sugar Land

    Heute, 21 April, Sonntag

    Zeit Temperatur Niederschläge Wind Luftdruck Luftfeuchtigkeit
    00:00 +16°C° 0 mm 3 m/S 761 mmHg 65%
    01:00 +16°C° 0 mm 3 m/S 760 mmHg 67%
    02:00 +16°C° 0 mm 3 m/S 760 mmHg 70%
    03:00 +16°C° 0 mm 3 m/S 760 mmHg 73%
    04:00 +16°C° 0 mm 3 m/S 760 mmHg 75%
    05:00 +16°C° 0 mm 3 m/S 760 mmHg 77%
    06:00 +16°C° 0 mm 3 m/S 760 mmHg 80%
    07:00 +19°C° 0 mm 4 m/S 760 mmHg 73%
    08:00 +21°C° 0 mm 4 m/S 761 mmHg 67%
    09:00 +23°C° 0 mm 5 m/S 761 mmHg 61%
    10:00 +26°C° 0 mm 6 m/S 761 mmHg 58%
    11:00 +27°C° 0 mm 6 m/S 761 mmHg 55%
    12:00 +28°C° 0 mm 6 m/S 761 mmHg 52%
    13:00 +28°C° 0 mm 6 m/S 761 mmHg 53%
    14:00 +28°C° 0 mm 6 m/S 760 mmHg 53%
    15:00 +28°C° 0 mm 6 m/S 760 mmHg 53%
    16:00 +27°C° 0 mm 6 m/S 760 mmHg 58%
    17:00 +26°C° 0 mm 5 m/S 760 mmHg 62%
    18:00 +25°C° 0 mm 5 m/S 759 mmHg 67%
    19:00 +22°C° 0 mm 5 m/S 760 mmHg 72%
    20:00 +21°C° 0 mm 4 m/S 760 mmHg 77%
    21:00 +20°C° 0 mm 4 m/S 761 mmHg 83%
    22:00 +20°C° 0 mm 4 m/S 761 mmHg 84%
    23:00 +20°C° 0 mm 4 m/S 761 mmHg 86%

    Morgen, 22 April, Montag

    Zeit Temperatur Niederschläge Wind Luftdruck Luftfeuchtigkeit
    00:00 +19°C° 0 mm 3 m/S 761 mmHg 88%
    01:00 +19°C° 0 mm 3 m/S 760 mmHg 89%
    02:00 +19°C° 0 mm 3 m/S 760 mmHg 90%
    03:00 +19°C° 0 mm 3 m/S 760 mmHg 91%
    04:00 +19°C° 0 mm 3 m/S 760 mmHg 91%
    05:00 +19°C° 0 mm 3 m/S 760 mmHg 91%
    06:00 +19°C° 0 mm 3 m/S 760 mmHg 91%
    07:00 +21°C° 0 mm 4 m/S 760 mmHg 85%
    08:00 +22°C° 0 mm 5 m/S 761 mmHg 79%
    09:00 +24°C° 0 mm 6 m/S 761 mmHg 73%
    10:00 +26°C° 0 mm 6 m/S 761 mmHg 69%
    11:00 +27°C° 0 mm 6 m/S 761 mmHg 64%
    12:00 +28°C° 0 mm 6 m/S 761 mmHg 60%
    13:00 +28°C° 0 mm 6 m/S 761 mmHg 61%
    14:00 +28°C° 0 mm 7 m/S 760 mmHg 61%
    15:00 +28°C° 0 mm 7 m/S 759 mmHg 61%
    16:00 +27°C° 0 mm 6 m/S 759 mmHg 65%
    17:00 +26°C° 0 mm 5 m/S 759 mmHg 69%
    18:00 +25°C° 0 mm 5 m/S 759 mmHg 74%
    19:00 +23°C° 0 mm 4 m/S 760 mmHg 77%
    20:00 +22°C° 0 mm 4 m/S 760 mmHg 81%
    21:00 +21°C° 0 mm 4 m/S 761 mmHg 84%
    22:00 +22°C° 0 mm 4 m/S 760 mmHg 85%
    23:00 +22°C° 0 mm 5 m/S 760 mmHg 85%

    übermorgen, 23 April, Dienstag

    Zeit Temperatur Niederschläge Wind Luftdruck Luftfeuchtigkeit
    00:00 +22°C° 0 mm 5 m/S 760 mmHg 85%
    01:00 +22°C° 0 mm 5 m/S 759 mmHg 85%
    02:00 +22°C° 0 mm 4 m/S 759 mmHg 86%
    03:00 +22°C° 0 mm 4 m/S 758 mmHg 86%
    04:00 +22°C° 0 mm 4 m/S 759 mmHg 86%
    05:00 +22°C° 0 mm 4 m/S 759 mmHg 86%
    06:00 +22°C° 0 mm 4 m/S 759 mmHg 86%
    07:00 +22°C° 0 mm 4 m/S 759 mmHg 83%
    08:00 +23°C° 0 mm 4 m/S 760 mmHg 80%
    09:00 +25°C° 0 mm 4 m/S 760 mmHg 76%
    10:00 +25°C° 0.1 mm 4 m/S 760 mmHg 76%
    11:00 +25°C° 0.1 mm 4 m/S 760 mmHg 75%
    12:00 +26°C° 0.1 mm 4 m/S 760 mmHg 75%
    13:00 +26°C° 0.1 mm 5 m/S 760 mmHg 75%
    14:00 +26°C° 0.1 mm 5 m/S 760 mmHg 75%
    15:00 +26°C° 0.1 mm 5 m/S 759 mmHg 75%
    16:00 +26°C° 0 mm 5 m/S 759 mmHg 75%
    17:00 +26°C° 0 mm 5 m/S 759 mmHg 75%
    18:00 +25°C° 0 mm 5 m/S 759 mmHg 75%
    19:00 +25°C° 0 mm 5 m/S 759 mmHg 77%
    20:00 +23°C° 0 mm 5 m/S 759 mmHg 78%
    21:00 +22°C° 0 mm 5 m/S 759 mmHg 80%
    22:00 +22°C° 0 mm 4 m/S 759 mmHg 83%
    23:00 +21°C° 0 mm 3 m/S 759 mmHg 85%

    24 April, Mittwoch

    Zeit Temperatur Niederschläge Wind Luftdruck Luftfeuchtigkeit
    00:00 +21°C° 0 mm 2 m/S 759 mmHg 87%
    01:00 +21°C° 0 mm 2 m/S 759 mmHg 88%
    02:00 +22°C° 0 mm 1 m/S 759 mmHg 89%
    03:00 +22°C° 0 mm 1 m/S 759 mmHg 90%
    04:00 +21°C° 0 mm 2 m/S 759 mmHg 90%
    05:00 +21°C° 0 mm 3 m/S 759 mmHg 90%
    06:00 +21°C° 0 mm 4 m/S 759 mmHg 90%
    07:00 +22°C° 0.1 mm 4 m/S 759 mmHg 86%
    08:00 +24°C° 0.1 mm 3 m/S 759 mmHg 82%
    09:00 +25°C° 0.1 mm 3 m/S 759 mmHg 78%
    10:00 +26°C° 0.1 mm 3 m/S 759 mmHg 73%
    11:00 +27°C° 0.1 mm 4 m/S 759 mmHg 67%
    12:00 +28°C° 0.1 mm 4 m/S 758 mmHg 62%
    13:00 +28°C° 0 mm 4 m/S 758 mmHg 62%
    14:00 +28°C° 0 mm 5 m/S 757 mmHg 61%
    15:00 +29°C° 0 mm 5 m/S 757 mmHg 61%
    16:00 +28°C° 0.1 mm 5 m/S 757 mmHg 66%
    17:00 +27°C° 0.1 mm 5 m/S 756 mmHg 70%
    18:00 +26°C° 0.1 mm 5 m/S 756 mmHg 75%
    19:00 +25°C° 0 mm 4 m/S 757 mmHg 79%
    20:00 +23°C° 0 mm 4 m/S 757 mmHg 84%
    21:00 +22°C° 0 mm 4 m/S 757 mmHg 89%
    22:00 +22°C° 0 mm 4 m/S 757 mmHg 89%
    23:00 +22°C° 0 mm 4 m/S 757 mmHg 90%

    25 April, Donnerstag

    Zeit Temperatur Niederschläge Wind Luftdruck Luftfeuchtigkeit
    00:00 +22°C° 0 mm 5 m/S 757 mmHg 90%
    01:00 +22°C° 0.4 mm 4 m/S 756 mmHg 91%
    02:00 +22°C° 0.4 mm 3 m/S 756 mmHg 92%
    03:00 +23°C° 0.4 mm 2 m/S 756 mmHg 93%
    04:00 +23°C° 2.8 mm 2 m/S 756 mmHg 94%
    05:00 +23°C° 2.8 mm 2 m/S 756 mmHg 95%
    06:00 +23°C° 2.8 mm 2 m/S 756 mmHg 95%
    07:00 +24°C° 3.6 mm 3 m/S 756 mmHg 89%
    08:00 +26°C° 3.6 mm 4 m/S 756 mmHg 82%
    09:00 +27°C° 3.6 mm 5 m/S 756 mmHg 76%
    10:00 +28°C° 2.2 mm 5 m/S 756 mmHg 74%
    11:00 +28°C° 2.2 mm 5 m/S 756 mmHg 73%
    12:00 +29°C° 2.2 mm 4 m/S 756 mmHg 71%
    13:00 +29°C° 2.3 mm 5 m/S 756 mmHg 71%
    14:00 +29°C° 2.3 mm 5 m/S 756 mmHg 71%
    15:00 +29°C° 2.3 mm 5 m/S 756 mmHg 71%
    16:00 +28°C° 0.4 mm 4 m/S 756 mmHg 72%
    17:00 +28°C° 0.4 mm 4 m/S 756 mmHg 74%
    18:00 +27°C° 0.4 mm 4 m/S 756 mmHg 76%
    19:00 +26°C° 0 mm 4 m/S 756 mmHg 77%
    20:00 +24°C° 0 mm 3 m/S 757 mmHg 78%
    21:00 +22°C° 0 mm 3 m/S 758 mmHg 79%
    22:00 +21°C° 0 mm 4 m/S 757 mmHg 81%
    23:00 +21°C° 0 mm 4 m/S 757 mmHg 82%

    26 April, Freitag

    Zeit Temperatur Niederschläge Wind Luftdruck Luftfeuchtigkeit
    00:00 +20°C° 0 mm 4 m/S 757 mmHg 84%
    01:00 +20°C° 0 mm 4 m/S 757 mmHg 85%
    02:00 +20°C° 0 mm 4 m/S 757 mmHg 87%
    03:00 +19°C° 0 mm 4 m/S 757 mmHg 88%
    04:00 +19°C° 0 mm 4 m/S 757 mmHg 88%
    05:00 +19°C° 0 mm 4 m/S 757 mmHg 88%
    06:00 +18°C° 0 mm 4 m/S 758 mmHg 88%
    07:00 +19°C° 0 mm 4 m/S 758 mmHg 84%
    08:00 +21°C° 0 mm 5 m/S 758 mmHg 79%
    09:00 +22°C° 0 mm 5 m/S 758 mmHg 75%
    10:00 +23°C° 0 mm 5 m/S 758 mmHg 73%
    11:00 +23°C° 0 mm 5 m/S 758 mmHg 72%
    12:00 +25°C° 0 mm 5 m/S 758 mmHg 70%
    13:00 +25°C° 0 mm 5 m/S 758 mmHg 69%
    14:00 +25°C° 0 mm 5 m/S 757 mmHg 69%
    15:00 +25°C° 0 mm 5 m/S 757 mmHg 68%
    16:00 +25°C° 0 mm 4 m/S 757 mmHg 70%
    17:00 +25°C° 0 mm 4 m/S 757 mmHg 71%
    18:00 +25°C° 0 mm 4 m/S 757 mmHg 73%
    19:00 +23°C° 0 mm 4 m/S 757 mmHg 77%
    20:00 +22°C° 0 mm 4 m/S 758 mmHg 80%
    21:00 +21°C° 0 mm 4 m/S 758 mmHg 84%
    22:00 +21°C° 0 mm 3 m/S 758 mmHg 86%
    23:00 +21°C° 0 mm 3 m/S 758 mmHg 87%
    Mehr zeigen